Time,TemperatureF,DewpointF,PressureIn,WindDirection,WindDirectionDegrees,WindSpeedMPH,WindSpeedGustMPH,Humidity,HourlyPrecipIn,Conditions,Clouds,dailyrainin,SoftwareType,DateUTC
2013-03-08 00:02:00,28.0,23.0,29.47,North,0,0.0,5.0,80,0.00,,,0.00,,2013-03-08 05:02:00,
2013-03-08 00:12:00,28.0,23.0,29.47,North,0,0.0,5.0,80,0.00,,,0.00,,2013-03-08 05:12:00,
2013-03-08 00:22:00,28.0,23.0,29.47,North,0,0.0,7.0,80,0.00,,,0.00,,2013-03-08 05:22:00,
2013-03-08 00:33:00,27.0,22.0,29.47,North,0,0.0,5.0,80,0.00,,,0.00,,2013-03-08 05:33:00,
2013-03-08 00:42:00,27.0,22.0,29.47,North,0,0.0,5.0,80,0.00,,,0.00,,2013-03-08 05:42:00,
2013-03-08 00:52:00,27.0,22.0,29.47,North,0,0.0,0.0,82,0.00,,,0.00,,2013-03-08 05:52:00,
2013-03-08 01:02:00,27.0,22.0,29.47,North,0,0.0,0.0,82,0.00,,,0.00,,2013-03-08 06:02:00,
2013-03-08 01:11:00,27.0,22.0,29.47,North,0,0.0,0.0,82,0.00,,,0.00,,2013-03-08 06:11:00,
2013-03-08 01:22:00,26.0,22.0,29.47,North,0,0.0,6.0,84,0.00,,,0.00,,2013-03-08 06:22:00,
2013-03-08 01:32:00,25.0,21.0,29.47,North,0,0.0,0.0,85,0.00,,,0.00,,2013-03-08 06:32:00,
2013-03-08 01:42:00,25.0,21.0,29.47,North,0,0.0,0.0,85,0.00,,,0.00,,2013-03-08 06:42:00,
2013-03-08 01:52:00,25.0,21.0,29.47,North,0,0.0,0.0,86,0.00,,,0.00,,2013-03-08 06:52:00,
2013-03-08 02:01:00,24.0,21.0,29.47,North,0,0.0,0.0,89,0.00,,,0.00,,2013-03-08 07:01:00,
2013-03-08 02:11:00,24.0,21.0,29.47,North,0,0.0,0.0,89,0.00,,,0.00,,2013-03-08 07:11:00,
2013-03-08 02:22:00,24.0,21.0,29.47,North,0,0.0,0.0,89,0.00,,,0.00,,2013-03-08 07:22:00,
2013-03-08 02:32:00,26.0,24.0,29.47,North,0,0.0,4.0,91,0.00,,,0.00,,2013-03-08 07:32:00,
2013-03-08 02:42:00,26.0,24.0,29.47,North,0,0.0,4.0,91,0.00,,,0.00,,2013-03-08 07:42:00,
2013-03-08 02:52:00,26.0,24.0,29.47,SSE,149,3.0,4.0,91,0.00,,,0.00,,2013-03-08 07:52:00,
2013-03-08 03:01:00,26.0,23.0,29.47,North,0,0.0,5.0,90,0.00,,,0.00,,2013-03-08 08:01:00,
2013-03-08 03:11:00,26.0,23.0,29.47,North,0,0.0,5.0,90,0.00,,,0.00,,2013-03-08 08:11:00,
2013-03-08 03:22:00,24.0,21.0,29.47,North,0,0.0,0.0,89,0.00,,,0.00,,2013-03-08 08:22:00,
2013-03-08 03:32:00,24.0,22.0,29.47,North,0,0.0,0.0,90,0.00,,,0.00,,2013-03-08 08:32:00,
2013-03-08 03:42:00,24.0,22.0,29.47,North,0,0.0,0.0,90,0.00,,,0.00,,2013-03-08 08:42:00,
2013-03-08 03:52:00,23.0,21.0,29.47,North,0,0.0,0.0,91,0.00,,,0.00,,2013-03-08 08:52:00,
2013-03-08 04:03:00,23.0,21.0,29.47,North,0,0.0,0.0,91,0.00,,,0.00,,2013-03-08 09:03:00,
2013-03-08 04:11:00,23.0,21.0,29.47,North,0,0.0,0.0,91,0.00,,,0.00,,2013-03-08 09:11:00,
2013-03-08 04:22:00,23.0,21.0,29.47,North,0,0.0,0.0,92,0.00,,,0.00,,2013-03-08 09:22:00,
2013-03-08 04:32:00,23.0,21.0,29.47,North,0,0.0,4.0,93,0.00,,,0.00,,2013-03-08 09:32:00,
2013-03-08 04:42:00,23.0,21.0,29.47,North,0,0.0,4.0,93,0.00,,,0.00,,2013-03-08 09:42:00,
2013-03-08 04:52:00,23.0,21.0,29.47,North,0,0.0,4.0,93,0.00,,,0.00,,2013-03-08 09:52:00,
2013-03-08 05:01:00,24.0,23.0,29.47,North,0,0.0,0.0,95,0.00,,,0.00,,2013-03-08 10:01:00,
2013-03-08 05:11:00,24.0,23.0,29.47,North,0,0.0,0.0,95,0.00,,,0.00,,2013-03-08 10:11:00,
2013-03-08 05:21:00,24.0,23.0,29.47,North,0,0.0,0.0,95,0.00,,,0.00,,2013-03-08 10:21:00,
2013-03-08 05:32:00,24.0,23.0,29.47,South,189,3.0,4.0,96,0.00,,,0.00,,2013-03-08 10:32:00,
2013-03-08 05:42:00,24.0,23.0,29.47,South,189,3.0,4.0,96,0.00,,,0.00,,2013-03-08 10:42:00,
2013-03-08 05:52:00,24.0,23.0,29.47,North,0,0.0,3.0,95,0.00,,,0.00,,2013-03-08 10:52:00,
2013-03-08 06:01:00,22.0,20.0,29.50,North,0,0.0,0.0,93,0.00,,,0.00,,2013-03-08 11:01:00,
2013-03-08 06:11:00,22.0,20.0,29.50,North,0,0.0,0.0,93,0.00,,,0.00,,2013-03-08 11:11:00,
2013-03-08 06:22:00,22.0,20.0,29.50,North,0,0.0,0.0,93,0.00,,,0.00,,2013-03-08 11:22:00,
2013-03-08 06:32:00,22.0,21.0,29.50,North,0,0.0,0.0,94,0.00,,,0.00,,2013-03-08 11:32:00,
2013-03-08 06:42:00,22.0,21.0,29.50,North,0,0.0,0.0,94,0.00,,,0.00,,2013-03-08 11:42:00,
2013-03-08 06:52:00,22.0,21.0,29.50,North,0,0.0,0.0,94,0.00,,,0.00,,2013-03-08 11:52:00,
2013-03-08 07:02:00,22.0,21.0,29.50,North,0,0.0,0.0,95,0.00,,,0.00,,2013-03-08 12:02:00,
2013-03-08 07:11:00,22.0,21.0,29.50,North,0,0.0,0.0,95,0.00,,,0.00,,2013-03-08 12:11:00,
2013-03-08 07:22:00,22.0,21.0,29.50,North,0,0.0,0.0,96,0.00,,,0.00,,2013-03-08 12:22:00,
2013-03-08 07:32:00,22.0,21.0,29.50,North,0,0.0,0.0,96,0.00,,,0.00,,2013-03-08 12:32:00,
2013-03-08 07:43:00,22.0,21.0,29.50,North,0,0.0,0.0,96,0.00,,,0.00,,2013-03-08 12:43:00,
2013-03-08 07:53:00,22.0,21.0,29.50,North,0,0.0,0.0,96,0.00,,,0.00,,2013-03-08 12:53:00,
2013-03-08 08:01:00,29.0,28.0,29.53,WSW,249,3.0,4.0,97,0.00,,,0.00,,2013-03-08 13:01:00,
2013-03-08 08:11:00,29.0,28.0,29.53,WSW,249,3.0,4.0,97,0.00,,,0.00,,2013-03-08 13:11:00,
2013-03-08 08:22:00,38.0,25.0,29.53,North,0,0.0,0.0,58,0.00,,,0.00,,2013-03-08 13:22:00,
2013-03-08 08:32:00,36.0,19.0,29.53,North,0,0.0,5.0,50,0.00,,,0.00,,2013-03-08 13:32:00,
2013-03-08 08:42:00,36.0,19.0,29.53,North,0,0.0,5.0,50,0.00,,,0.00,,2013-03-08 13:42:00,
2013-03-08 08:52:00,40.0,21.0,29.53,South,172,4.0,5.0,47,0.00,,,0.00,,2013-03-08 13:52:00,
2013-03-08 09:03:00,40.0,20.0,29.53,SSW,207,4.0,11.0,44,0.00,,,0.00,,2013-03-08 14:03:00,
2013-03-08 09:12:00,40.0,20.0,29.53,SSW,207,4.0,11.0,44,0.00,,,0.00,,2013-03-08 14:12:00,
2013-03-08 09:22:00,42.0,22.0,29.53,SSW,206,4.0,10.0,44,0.00,,,0.00,,2013-03-08 14:22:00,
2013-03-08 09:32:00,36.0,20.0,29.53,SSW,194,4.0,7.0,52,0.00,,,0.00,,2013-03-08 14:32:00,
2013-03-08 09:42:00,36.0,20.0,29.53,SSW,194,4.0,7.0,52,0.00,,,0.00,,2013-03-08 14:42:00,
2013-03-08 09:52:00,36.0,21.0,29.53,WSW,244,4.0,8.0,55,0.00,,,0.00,,2013-03-08 14:52:00,
2013-03-08 10:03:00,38.0,23.0,29.53,South,177,5.0,8.0,54,0.00,,,0.00,,2013-03-08 15:03:00,
2013-03-08 10:12:00,38.0,23.0,29.53,South,177,5.0,8.0,54,0.00,,,0.00,,2013-03-08 15:12:00,
2013-03-08 10:22:00,37.0,21.0,29.53,WSW,255,4.0,15.0,52,0.00,,,0.00,,2013-03-08 15:22:00,
2013-03-08 10:32:00,37.0,21.0,29.50,SW,224,5.0,14.0,51,0.00,,,0.00,,2013-03-08 15:32:00,
2013-03-08 10:42:00,37.0,21.0,29.50,SW,224,5.0,14.0,51,0.00,,,0.00,,2013-03-08 15:42:00,
2013-03-08 10:53:00,39.0,22.0,29.53,SW,232,4.0,12.0,50,0.00,,,0.00,,2013-03-08 15:53:00,
2013-03-08 11:01:00,41.0,22.0,29.53,South,186,4.0,11.0,46,0.00,,,0.00,,2013-03-08 16:01:00,
2013-03-08 11:11:00,41.0,22.0,29.53,South,186,4.0,11.0,46,0.00,,,0.00,,2013-03-08 16:11:00,
2013-03-08 11:22:00,42.0,22.0,29.53,SW,226,6.0,10.0,44,0.00,,,0.00,,2013-03-08 16:22:00,
2013-03-08 11:32:00,42.0,22.0,29.53,SW,226,6.0,10.0,44,0.00,,,0.00,,2013-03-08 16:32:00,
2013-03-08 11:42:00,42.0,22.0,29.53,SW,226,6.0,10.0,44,0.00,,,0.00,,2013-03-08 16:42:00,
2013-03-08 11:52:00,45.0,23.0,29.50,SSE,160,4.0,8.0,42,0.00,,,0.00,,2013-03-08 16:52:00,
2013-03-08 12:03:00,47.0,24.0,29.50,SE,142,4.0,6.0,40,0.00,,,0.00,,2013-03-08 17:03:00,
2013-03-08 12:12:00,47.0,24.0,29.50,SE,142,4.0,6.0,40,0.00,,,0.00,,2013-03-08 17:12:00,
2013-03-08 12:22:00,46.0,23.0,29.50,SSE,148,4.0,7.0,40,0.00,,,0.00,,2013-03-08 17:22:00,
2013-03-08 12:32:00,47.0,23.0,29.50,SE,140,4.0,7.0,39,0.00,,,0.00,,2013-03-08 17:32:00,
2013-03-08 12:42:00,47.0,23.0,29.50,SE,140,4.0,7.0,39,0.00,,,0.00,,2013-03-08 17:42:00,
2013-03-08 12:52:00,48.0,24.0,29.50,SSE,163,7.0,8.0,38,0.00,,,0.00,,2013-03-08 17:52:00,
2013-03-08 13:02:00,49.0,24.0,29.50,SSW,203,4.0,8.0,37,0.00,,,0.00,,2013-03-08 18:02:00,
2013-03-08 13:12:00,49.0,24.0,29.50,SSW,203,4.0,8.0,37,0.00,,,0.00,,2013-03-08 18:12:00,
2013-03-08 13:22:00,49.0,24.0,29.50,South,184,4.0,11.0,37,0.00,,,0.00,,2013-03-08 18:22:00,
2013-03-08 13:32:00,50.0,25.0,29.50,SSE,163,5.0,8.0,37,0.00,,,0.00,,2013-03-08 18:32:00,
2013-03-08 13:42:00,50.0,25.0,29.50,SSE,163,5.0,8.0,37,0.00,,,0.00,,2013-03-08 18:42:00,
2013-03-08 13:52:00,50.0,24.0,29.50,South,186,4.0,8.0,36,0.00,,,0.00,,2013-03-08 18:52:00,
2013-03-08 14:01:00,51.0,25.0,29.47,North,0,0.0,7.0,36,0.00,,,0.00,,2013-03-08 19:01:00,
2013-03-08 14:11:00,51.0,25.0,29.47,North,0,0.0,7.0,36,0.00,,,0.00,,2013-03-08 19:11:00,
2013-03-08 14:22:00,51.0,24.0,29.47,South,189,5.0,12.0,34,0.00,,,0.00,,2013-03-08 19:22:00,
2013-03-08 14:32:00,52.0,25.0,29.44,SSW,193,4.0,10.0,34,0.00,,,0.00,,2013-03-08 19:32:00,
2013-03-08 14:42:00,52.0,25.0,29.44,SSW,193,4.0,10.0,34,0.00,,,0.00,,2013-03-08 19:42:00,
2013-03-08 14:52:00,53.0,25.0,29.44,South,186,4.0,10.0,34,0.00,,,0.00,,2013-03-08 19:52:00,
2013-03-08 15:01:00,52.0,22.0,29.44,WSW,245,8.0,13.0,30,0.00,,,0.00,,2013-03-08 20:01:00,
2013-03-08 15:11:00,52.0,22.0,29.44,WSW,245,8.0,13.0,30,0.00,,,0.00,,2013-03-08 20:11:00,
2013-03-08 15:22:00,52.0,22.0,29.44,SW,233,4.0,12.0,31,0.00,,,0.00,,2013-03-08 20:22:00,
2013-03-08 15:32:00,52.0,22.0,29.44,WSW,256,7.0,11.0,30,0.00,,,0.00,,2013-03-08 20:32:00,
2013-03-08 15:42:00,52.0,22.0,29.44,WSW,256,7.0,11.0,30,0.00,,,0.00,,2013-03-08 20:42:00,
2013-03-08 15:52:00,52.0,22.0,29.41,SSW,207,5.0,11.0,31,0.00,,,0.00,,2013-03-08 20:52:00,
2013-03-08 16:02:00,52.0,22.0,29.41,SSW,207,5.0,11.0,31,0.00,,,0.00,,2013-03-08 21:02:00,
2013-03-08 16:12:00,52.0,22.0,29.41,SSW,207,5.0,11.0,31,0.00,,,0.00,,2013-03-08 21:12:00,
2013-03-08 16:22:00,53.0,23.0,29.41,South,190,6.0,14.0,31,0.00,,,0.00,,2013-03-08 21:22:00,
2013-03-08 16:32:00,53.0,22.0,29.41,SSW,194,6.0,11.0,30,0.00,,,0.00,,2013-03-08 21:32:00,
2013-03-08 16:42:00,53.0,22.0,29.41,SSW,194,6.0,11.0,30,0.00,,,0.00,,2013-03-08 21:42:00,
2013-03-08 16:52:00,52.0,22.0,29.41,South,176,4.0,12.0,30,0.00,,,0.00,,2013-03-08 21:52:00,
2013-03-08 17:01:00,53.0,22.0,29.41,SSE,165,5.0,9.0,30,0.00,,,0.00,,2013-03-08 22:01:00,
2013-03-08 17:12:00,53.0,22.0,29.41,SSE,165,5.0,9.0,30,0.00,,,0.00,,2013-03-08 22:12:00,
2013-03-08 17:22:00,52.0,22.0,29.44,South,170,4.0,9.0,30,0.00,,,0.00,,2013-03-08 22:22:00,
2013-03-08 17:32:00,51.0,21.0,29.44,SSW,203,5.0,10.0,30,0.00,,,0.00,,2013-03-08 22:32:00,
2013-03-08 17:42:00,51.0,21.0,29.44,SSW,203,5.0,10.0,30,0.00,,,0.00,,2013-03-08 22:42:00,
2013-03-08 17:53:00,51.0,21.0,29.44,North,0,0.0,10.0,31,0.00,,,0.00,,2013-03-08 22:53:00,
2013-03-08 18:02:00,51.0,21.0,29.44,North,0,0.0,7.0,31,0.00,,,0.00,,2013-03-08 23:02:00,
2013-03-08 18:12:00,51.0,21.0,29.44,North,0,0.0,7.0,31,0.00,,,0.00,,2013-03-08 23:12:00,
2013-03-08 18:22:00,50.0,21.0,29.41,West,270,3.0,7.0,32,0.00,,,0.00,,2013-03-08 23:22:00,
2013-03-08 18:32:00,50.0,21.0,29.44,North,0,0.0,6.0,32,0.00,,,0.00,,2013-03-08 23:32:00,
2013-03-08 18:42:00,50.0,21.0,29.44,North,0,0.0,6.0,32,0.00,,,0.00,,2013-03-08 23:42:00,
2013-03-08 18:52:00,48.0,22.0,29.44,North,0,0.0,0.0,35,0.00,,,0.00,,2013-03-08 23:52:00,
2013-03-08 19:02:00,48.0,22.0,29.44,North,0,0.0,0.0,35,0.00,,,0.00,,2013-03-09 00:02:00,
2013-03-08 19:12:00,48.0,22.0,29.44,North,0,0.0,0.0,35,0.00,,,0.00,,2013-03-09 00:12:00,
2013-03-08 19:22:00,46.0,21.0,29.41,West,270,4.0,7.0,37,0.00,,,0.00,,2013-03-09 00:22:00,
2013-03-08 19:32:00,46.0,21.0,29.41,West,270,4.0,7.0,37,0.00,,,0.00,,2013-03-09 00:32:00,
2013-03-08 19:42:00,46.0,21.0,29.41,West,270,4.0,7.0,37,0.00,,,0.00,,2013-03-09 00:42:00,
2013-03-08 19:52:00,44.0,20.0,29.44,North,0,0.0,4.0,38,0.00,,,0.00,,2013-03-09 00:52:00,
2013-03-08 20:02:00,42.0,19.0,29.44,North,0,0.0,0.0,39,0.00,,,0.00,,2013-03-09 01:02:00,
2013-03-08 20:12:00,42.0,19.0,29.44,North,0,0.0,0.0,39,0.00,,,0.00,,2013-03-09 01:12:00,
2013-03-08 20:22:00,40.0,22.0,29.44,North,0,0.0,0.0,49,0.00,,,0.00,,2013-03-09 01:22:00,
2013-03-08 20:32:00,40.0,22.0,29.44,North,0,0.0,0.0,49,0.00,,,0.00,,2013-03-09 01:32:00,
2013-03-08 20:42:00,40.0,22.0,29.44,North,0,0.0,0.0,49,0.00,,,0.00,,2013-03-09 01:42:00,
2013-03-08 20:52:00,38.0,21.0,29.44,North,0,0.0,0.0,50,0.00,,,0.00,,2013-03-09 01:52:00,
2013-03-08 21:01:00,40.0,21.0,29.44,WSW,258,3.0,5.0,46,0.00,,,0.00,,2013-03-09 02:01:00,
2013-03-08 21:11:00,40.0,21.0,29.44,WSW,258,3.0,5.0,46,0.00,,,0.00,,2013-03-09 02:11:00,
2013-03-08 21:21:00,37.0,20.0,29.44,North,0,0.0,0.0,50,0.00,,,0.00,,2013-03-09 02:21:00,
2013-03-08 21:31:00,36.0,22.0,29.44,North,0,0.0,0.0,56,0.00,,,0.00,,2013-03-09 02:31:00,
2013-03-08 21:41:00,36.0,22.0,29.44,North,0,0.0,0.0,56,0.00,,,0.00,,2013-03-09 02:41:00,
2013-03-08 21:51:00,35.0,21.0,29.44,North,0,0.0,4.0,56,0.00,,,0.00,,2013-03-09 02:51:00,
2013-03-08 22:01:00,36.0,21.0,29.44,North,0,0.0,4.0,55,0.00,,,0.00,,2013-03-09 03:01:00,
2013-03-08 22:11:00,36.0,21.0,29.44,North,0,0.0,4.0,55,0.00,,,0.00,,2013-03-09 03:11:00,
2013-03-08 22:22:00,35.0,23.0,29.44,North,0,0.0,0.0,60,0.00,,,0.00,,2013-03-09 03:22:00,
2013-03-08 22:31:00,35.0,23.0,29.44,North,0,0.0,0.0,60,0.00,,,0.00,,2013-03-09 03:31:00,
2013-03-08 22:41:00,35.0,23.0,29.44,North,0,0.0,0.0,60,0.00,,,0.00,,2013-03-09 03:41:00,
2013-03-08 22:52:00,36.0,21.0,29.44,North,0,0.0,4.0,54,0.00,,,0.00,,2013-03-09 03:52:00,
2013-03-08 23:01:00,35.0,23.0,29.44,North,0,0.0,5.0,60,0.00,,,0.00,,2013-03-09 04:01:00,
2013-03-08 23:11:00,35.0,23.0,29.44,North,0,0.0,5.0,60,0.00,,,0.00,,2013-03-09 04:11:00,
2013-03-08 23:22:00,33.0,22.0,29.44,North,0,0.0,4.0,63,0.00,,,0.00,,2013-03-09 04:22:00,
2013-03-08 23:32:00,33.0,22.0,29.44,North,0,0.0,4.0,63,0.00,,,0.00,,2013-03-09 04:32:00,
2013-03-08 23:42:00,33.0,22.0,29.44,North,0,0.0,4.0,63,0.00,,,0.00,,2013-03-09 04:42:00,
2013-03-08 23:52:00,32.0,22.0,29.44,North,0,0.0,0.0,67,0.00,,,0.00,,2013-03-09 04:52:00,